Résultats de la compétition "Régionale 6 LIFCO Les Taillis d'Epernon 28/11/2010" du 28-11-2010 organisée par le club 7808
     
  Télécharger le fichier CSV.  
     
     

 Circuit "Circuit A"

Licence Nom Prénom Temps CN
précédent
Score sur
la course
Différence
2121VANNIERFabrice1:07:1478646019-1845
17648DUBURQUOISErwan1:10:0960815769-312
722FLICOTEAUXRaphael1:13:3861815496-685
9601BESTELThierry1:14:1858345446-388
8972LEPLATEmmanuel1:15:0357465392-354
4768RICARDGael1:16:3559455284-661
3141MOREYEtienne1:17:1353465241-105
19020DUFRESNEFabien1:18:2549845161+177
13393GRIMAULTFreddy1:18:4046515144+492.6667
3742JOURDATOlivier1:21:1149944985-9
21168POIRSONGaëtan1:21:5434034941+1538
23652LE ROUXEric1:23:32N/A4844N/A
12934THOMASJohann1:24:2463944795-1599
23908CUMPSTEYIan1:25:38N/A4726N/A
22PLAGNESylvain1:27:0548634647-216
2171DEVILLERSChristophe1:27:2344944631+137
22548GUIOTAlexis1:29:1634234533+1110
883GALPINNicolas1:29:4337754511+736
8795BARBEDavid1:30:2738234474+651
19344DAEMAdriaan1:31:2940754423+348
14974LAUDEPhilippe1:31:3138624422+560
15176QUINQUENELHerve1:31:5047624407-355
20432JESTINEric1:33:3840974322+225
8990GUESDONMaxime1:34:0242874304+17
4367BOURGUETGodefroy1:34:13N/A4295N/A
22780AUGUSTYNOWICZBrice1:38:0604125N/A
22156RIBIEREmmanuel1:39:0442714085-186
7838COSTERobert1:42:5945903929-661
21472DALLEEric1:49:4035603690+130
22155GABRIELOlivier1:51:4337093622-87
20779MEHEUTGuillaume1:57:0335193457-62
22435LORMEAUStéphane2:13:5032303024-206
23185ROUSSEAUXNicolas2:17:14N/A2949N/A
17777TREILLARDDominiqueN/A30030-3003

  Indice de confiance du circuit (moyenne des différences entre CN et score sur la course des 3 à 10 premiers) : 251




 Circuit "Circuit B"

Licence Nom Prénom Temps CN
précédent
Score sur
la course
Différence
7251GRUSELLEFabien0:54:1363865675-711
2252GROSHENSDidier0:54:1460685673-395
18211BLOTGregory0:56:0845365481+945
6117LESAULTPhilippe0:56:0858625481-381
1365LEJEUNEBruno0:58:0557345297-437
2787ESNAULTCedric0:59:1045105200+690
12114PANNIERPascal1:00:1257125111-601
10755L'HERITIERJean-Philippe1:00:2964135087-1326
1978GASNOTLaurent1:00:4355525067-485
20416STEPHANYAntoine1:01:5239224973+1051
4181RAUTURIERBenoit1:02:0557204956-764
2221BEAUVISAGEChristoph1:04:2947724771-1
2072GRANIERDamien1:04:4039424758+816
11834BEAUVISAGEAudry1:05:0448214728-93
16119SENTAGNEFrancois1:05:2649874702-285
2448SPAETHDaniel1:09:4151984415-783
19094LEMAIREYann-pierrick1:09:5544354400-35
14688CARUELFrancois1:10:4343494351+2
22965RIGOVincent1:10:59N/A4334N/A
8548CLOUARDFrederic1:10:5942844334+50
12844PASTORPhilippe1:12:11N/A4262N/A
20263LE BRASBruno1:13:4935734168+595
12896BOTOJeremi1:14:0704151N/A
16518OLIERICJ-Christophe1:14:2439714135+164
16508PELLINBertrand1:15:1343944090-304
10809GUERINFranck1:16:1343864037-349
16184FAUQUANTJ-Marie1:16:2636854025+340
18615COPGoran1:18:0529163940+1024
10751RAOULTPascal1:18:4640093906-103
19023GAUQUELINJerome1:19:2126863877+1191
12241VIONLudovic1:20:0437313843+112
8445FINASCeline1:21:0848853792-1093
15226MERIGUETFabien1:23:2630123688+676
23346VANLEENEBenoit1:23:26N/A3688N/A
13245POYARDJ-Claude1:25:2339463603-343
15253DELAVEAUPatrice1:25:3536053595-10
20845POUVRASSEAULudovic1:27:3328173514+697
20982CHENOTFranck1:29:5430553422+367
11302CARRIELaurent1:30:5130453387+342
14800DAMBRINEFabrice1:33:0437733306-467
19097COUSSEMENTNicolas1:33:1228793301+422
20280MACAIREPaul1:34:3132583255-3
10491FARGANELThierry1:34:4433913248-143
21184MUGICAYvan1:35:4135613215-346
6552FARGANELBenoit1:37:2531693158-11
22932DURAND DAUBINMathieu1:39:28N/A3093N/A
20431WANNAVONGHZManyrath1:43:1120432982+939
20384DUTERAGEChristian1:46:4726432881+238
20392JOUFFRAISStéphane1:47:3316482861+1213
23212DENISAlexandre3:21:44N/A1525N/A
22385TOMASSIJean MarcN/A24510-2451
11997DELEIRISFlorianN/A30990-3099
11999LAURENTMichelN/A00N/A

  Indice de confiance du circuit (moyenne des différences entre CN et score sur la course des 3 à 10 premiers) : 234




 Circuit "Circuit C"

Licence Nom Prénom Temps CN
précédent
Score sur
la course
Différence
2034BAROUXJacky0:45:0663795389-990
3194ESTIVALJ-Luc0:51:4251864701-485
10361COXAnthony0:51:4865534692-1861
23700ODLUNDErika0:52:17N/A4648N/A
7702RORAJose0:53:4154674527-940
7902PORTRONAlain0:56:4943144277-37
18655BERNARDLaura0:58:1429634173+1210
3030SABATIERFrancois0:58:2537964160+364
23679COUTALAlexandre0:59:31N/A4083N/A
20554COFFEDaniel1:01:1030073973+966
14947JOUVEBernard1:01:5141543929-225
18654BERNARDVincent1:02:1838393901+62
3847MATHELIERChristian1:02:3103887N/A
1955WIBARTHelier1:02:5635363862+326
12226PINAUDMichel1:03:0443623853-509
22293MARTINFulgencio1:04:1336823784+102
23680LEPREUX Sébastien1:04:14N/A3783N/A
1953SAINT-UPERYPatrick1:06:5136503635-15
20920COUDELionel1:10:1528273459+632
22600CAVALIERHéloïse1:10:2025903455+865
18059BRUNDU-LEMAIRESarah1:10:3336933445-248
14005ABRIOLDaniel1:11:4330943389+295
1367MOLINIERJ-Luc1:13:1940093315-694
16946POTEAUJimmy1:14:4124563254+798
1514CHARLESThierry1:15:2742043221-983
20395NOMDEDEUEmilie1:16:2626503180+530
18056ADOLPHEPhilippe1:16:3132053176-29
21452RODRIGUEZ VAZQUEZFélix1:17:23N/A3141N/A
13174BARDURYEmile1:17:4540613126-935
22363BONNETDominique1:18:1103108N/A
17649LABROUSSEMichel1:20:0923753032+657
10830BESEGAILuc1:20:1628433028+185
2135COMBATBruno1:21:2527942985+191
1980GIESIMaurice1:25:2638622845-1017
23704SOUCHARDVirginie1:31:14N/A2664N/A
4581KARPYNChristian1:35:5027892536-253
2160ARLANDISJ-Christoph1:39:1027562451-305
13355SCHLUTIGSandrine2:07:1419711910-61
21973AMIARDRenaud2:15:1028581798-1060
13398DELAGEJ-GillesN/A00N/A

  Indice de confiance du circuit (moyenne des différences entre CN et score sur la course des 3 à 10 premiers) : 312




 Circuit "Circuit D"

Licence Nom Prénom Temps CN
précédent
Score sur
la course
Différence
19661TREPTELPierre0:42:4541204590+470
2146HAMONPatrick0:46:2446944229-465
22398BONNETVincent0:47:1825864149+1563
8922ROULLEAUXNoemie0:47:4547924109-683
13244VARRONStephanie0:47:4751134107-1006
11559ROULLEAUXJulie0:54:3339193597-322
2006TESSIERDaniel0:55:1238023555-247
17853LOTTFrederic0:57:2830903415+325
19686GARINGilles1:00:0923453262+917
17309BESTELFlorence1:00:2334923250-242
19345CHARDOTJulia1:00:4927693227+458
20418PIGEOTSylvie1:00:5130153225+210
8920TOUZAIN ROULLEAUXIsabelle1:01:1937833200-583
3600LAZAROWICZRichard1:02:0932213157-64
11554VERBRUGGHEAlain1:02:2230623146+84
1262BEHOTEGUYBernard1:04:2738933045-848
22292MARTINSylvie1:04:2832843044-240
3195CLETArlette1:06:2933402951-389
16309CAVARROCCeline1:06:5817362930+1194
22408GOURDINCédric1:07:3126572906+249
1938LEFRANCOISGerard1:09:3336852821-864
3356CHARIAUMichel1:12:3834062702-704
16265DHERVEGwenaelle1:13:3013042670+1366
21220TAISSONSandrine1:13:4028772664-213
12733BROYARTDominique1:13:5232622656-606
22473ROUGEAUXClémence1:14:2002640N/A
18140AUBERTFabrice1:14:3025412634+93
14946LEVREUXNathalie1:16:1132092576-633
15302TARNAUD-LAUDENathal1:18:3019122500+588
18062TREPTELAnne1:19:3532132466-747
20358COFFEMarie-pierre1:20:3730652434-631
11832RODIERMarie1:25:2602297N/A
8549CLOUARDFlorence1:27:5127372234-503
3990MOLINIERFrederique1:29:1729152198-717
16687MERIGUETValerie1:30:5014302160+730
10338ROGIERYann1:31:4626002138-462
22314CHARDOTUlrike1:35:4214752050+575
22539CHARDOTThierry1:39:2915491972+423
18060LE CAMMarion1:48:49N/A1803N/A
4874BARBIERLucN/A28280-2828
23686MINIOTFrédériqueN/AN/A0N/A
22584VERCAMBREJeanneN/A00N/A

  Indice de confiance du circuit (moyenne des différences entre CN et score sur la course des 3 à 10 premiers) : 260




 Circuit "Circuit E"

Licence Nom Prénom Temps CN
précédent
Score sur
la course
Différence
12560ESTIVALThierry0:33:2432763426+150
20502PEUREYLoann0:33:5323053377+1072
20664ERBLANDThibault0:34:2921933318+1125
22359LAMBERT Grégoire0:42:0102723N/A
19268LEJEUNEPaul0:43:1619412645+704
23705BERCOTClément0:43:50N/A2610N/A
23568MARTINPascale0:47:05N/A2430N/A
22575DREANOBenjamin0:47:2913772410+1033
22315CHARDOTMarion0:48:0320242381+357
6094LEROUEILM-Paule0:48:4636532346-1307
6487MOLINIERCaroline0:50:0231302287-843
5982BRETDominique0:50:4125562258-298
10758BESTELSandra1:04:5126241764-860
22234PIGEOTLaurène1:05:3320611746-315
19260CARUELMarie1:05:5311911737+546
23711DREANOJoël1:07:03N/A1707N/A
2004TESSIERAriane1:07:4924921687-805
23687VANLEENE Mathilde1:08:54N/A1661N/A
23798ROSPARSThéophile1:32:25N/A1238N/A
3598LAZAROWICZR-Marie1:39:0816441154-490
23929THEBAULTJean-charles1:46:37N/A1073N/A
23668FERNANDEZLauriane1:53:12N/A1011N/A
20869BOUQUEREAUMorganeN/A16580-1658

  Indice de confiance du circuit (moyenne des différences entre CN et score sur la course des 3 à 10 premiers) : 575




 Circuit "Circuit F"

Licence Nom Prénom Temps CN
précédent
Score sur
la course
Différence
22495ERBLANDPierre0:18:1314642408+944
16688PANNIERQuentin0:21:5522712002-269
17308BESTELArnault0:22:0522361986-250
22494ERBLANDThomas0:22:0615491985+436
8552CLOUARDAugustin0:22:5623231913-410
23153ERBLANDChristine0:24:28N/A1793N/A
20662FEIGNIEREric0:26:259011661+760
12561ESTIVALSolene0:27:1219461613-333
14751DOURDOU-VARRONMalo0:27:3922011587-614
19099PANNIERAxel0:30:3412161435+219
20717GARINPaul0:32:0301369N/A
21201CARUELRémi0:33:3701305N/A
20660ELVERJudith0:38:1201148N/A
21305COMBATAlexandre0:39:489301102+172
19375MERIGUETEmilie0:44:58782976+194
19095LEMAIRECléo0:45:190968N/A
22432PEUREYTristan0:51:21N/A854N/A
24156RODRIGUEZ VAZQUEZSylvieN/AN/A0N/A

  Indice de confiance du circuit (moyenne des différences entre CN et score sur la course des 3 à 10 premiers) : 529






 Retour